sat.trackr.live / text

‹ back to catalog

HULIANWANG DIGUI-125

NORAD 67065 · 2025-295G

PAYLOAD ACTIVE UNKNOWN

§ Identity

Operator
Country
PRC
Launch date
2025-12-11
Launch site
WSC
Launch vehicle
Mass (kg)
RCS (m²)

External: N2YO · Heavens-Above · Gunter

§ Orbital elements

Epoch: 2026-05-25T04:14:33.888768Z

Period
108.33 min
Inclination
49.9976°
Eccentricity
0.0000842
Mean motion
13.29326197 rev/d
Perigee alt
1,148.7 km
Apogee alt
1,149.9 km
Semi-major
7,527.4 km
B*
9.4306e-5
RAAN
107.7967°
Arg perigee
352.2550°
Mean anomaly
7.8309°
Rev number
2,244

§ Raw data

HULIANWANG DIGUI-1251 67065U 25295G   26145.17678112 -.00000080  00000+0  94306-4 0  99922 67065  49.9976 107.7967 0000842 352.2550   7.8309 13.29326197 22445

JSON: /api/v1/satellites/67065 · /tle

For live sub-satellite position, see the globe view (requires WebGL).

§ Visibility from observer

Set your observer location to see the next 7 days of passes ≥ 10°. The values pass through the URL so the page stays shareable.

No JS? Fill the form by hand. The geolocation button needs JavaScript.